Location: Boussac
(44.2782°N, 2.3665°E)
Time: 10:57:30
(UTC+00:00)

NOSS 3-3 (A) - Pass Details

Date: 15 May 2026
Orbit: 691 x 1518 km, 63.4° (Epoch: 11 January)

Event Time Altitude Azimuth Distance (km) Brightness Sun altitude
Rises 19:55:06 0° 212° (SSW) 3,098 6.6 -7.6°
Reaches altitude 10° 19:57:18 10° 212° (SSW) 2,228 5.9 -7.9°
Maximum altitude 20:02:20 82° 125° (SE) 819 3.6 -8.6°
Drops below altitude 10° 20:08:20 10° 39° (NE) 2,639 6.3 -9.4°
Sets 20:11:08 0° 38° (NE) 3,716 7.1 -9.8°
